Location: Emporia
(38.4040°N, 96.1810°W)
Time: 02:25:31
(UTC-05:00)

Amateur Radio Satellites - All Passes

Search period start: 31 July 2016 01:55
Search period end: 01 August 2016 01:55
Location: Emporia, 38.4040°N, 96.1810°W

Satellite Date Start Highest point End Downlink Frequencies (MHz)
Time Altitude Azimuth
SPROUT 31 Jul 01:56:13 01:59:21 20° 266° (W) 02:02:31 437.525
Oscar 19 31 Jul 02:03:36 02:07:51 25° 95° (E) 02:12:06 437.125/150
ITUPSAT 1 31 Jul 02:10:33 02:14:26 25° 67° (ENE) 02:18:19 437.325
JUGNU 31 Jul 02:12:03 02:14:21 12° 178° (S) 02:16:38 437.505
Gurwin Techsat 1B 31 Jul 02:19:21 02:22:29 16° 92° (E) 02:25:37 435.225
BUGSAT 1 31 Jul 02:26:26 02:30:01 27° 290° (WNW) 02:33:34 437.445
NANOSAT C BR1 31 Jul 02:29:25 02:30:47 11° 296° (WNW) 02:32:09 145.865
DUCHIFAT 1 31 Jul 02:31:31 02:32:56 11° 296° (WNW) 02:34:20 145.980
TISAT 1 31 Jul 02:35:17 02:38:58 30° 263° (W) 02:42:42 437.305
ISS 31 Jul 02:36:29 02:39:29 33° 32° (NNE) 02:42:29 145.825
SWISSCUBE 31 Jul 03:00:14 03:05:02 88° 251° (WSW) 03:09:51 437.505
BEESAT 3 31 Jul 03:00:15 03:04:09 54° 56° (ENE) 03:08:02 437.485
Cosmos 2499 31 Jul 03:00:17 03:07:50 56° 78° (ENE) 03:14:51 435.465 / 435.565
PCSat 31 Jul 03:09:33 03:13:14 18° 47° (NE) 03:16:53 145.827
JAS-2 31 Jul 03:10:42 03:14:53 23° 293° (WNW) 03:19:22 435.910
BEESAT 2 31 Jul 03:15:05 03:18:55 41° 55° (NE) 03:22:41 435.950
GONETS M04 31 Jul 03:19:09 03:27:59 82° 265° (W) 03:36:50
BEESAT 31 Jul 03:21:13 03:25:56 59° 259° (W) 03:30:40 436.000
MOZHAYETS 4 31 Jul 03:25:28 03:28:37 18° 66° (ENE) 03:31:45
CUSAT 1 31 Jul 03:38:12 03:41:50 40° 98° (E) 03:44:46 437.405
Oscar 19 31 Jul 03:42:30 03:47:12 36° 291° (WNW) 03:51:54 437.125/150
AO-7 31 Jul 03:44:00 03:49:28 19° 92° (E) 03:54:52 29.400- 29.500
ITAMSAT 1 31 Jul 03:47:02 03:51:45 34° 98° (E) 03:56:25 435.822/435.867
ITUPSAT 1 31 Jul 03:47:48 03:52:06 32° 263° (W) 03:56:24 437.325
KKS-1 31 Jul 03:55:18 03:59:18 34° 70° (ENE) 04:03:20 437.445
Gurwin Techsat 1B 31 Jul 03:57:34 04:02:48 59° 287° (WNW) 04:08:00 435.225
JUGNU 31 Jul 04:01:42 04:02:27 10° 189° (S) 04:03:13 437.505
ISS 31 Jul 04:13:08 04:15:48 23° 228° (SW) 04:18:27 145.825
AIST 2 31 Jul 04:16:15 04:17:30 11° 42° (NE) 04:18:45 435.215
STARS 31 Jul 04:22:07 04:26:02 33° 70° (ENE) 04:30:00 437.465
SRMSAT 31 Jul 04:37:06 04:39:19 12° 179° (S) 04:41:31 437.500
BEESAT 3 31 Jul 04:40:04 04:41:20 11° 252° (WSW) 04:42:37 437.485
DANDE 31 Jul 04:40:09 04:45:30 84° 101° (E) 04:49:27 436.750
PCSat 31 Jul 04:51:45 04:57:10 70° 245° (WSW) 05:02:31 145.827
BEESAT 2 31 Jul 04:53:59 04:56:22 15° 250° (WSW) 04:58:46 435.950
Cosmos 2499 31 Jul 04:54:32 05:00:16 24° 278° (W) 05:05:44 435.465 / 435.565
CUBESAT XI-V 31 Jul 04:56:26 04:59:45 20° 67° (ENE) 05:03:04 437.345
MOZHAYETS 4 31 Jul 05:01:03 05:05:26 42° 262° (W) 05:09:50
O/OREOS (USA 219) 31 Jul 05:10:22 05:12:22 13° 54° (NE) 05:14:21 437.305
HORYU 2 31 Jul 05:13:33 05:15:08 12° 91° (E) 05:16:43 437.375
GONETS M04 31 Jul 05:19:14 05:23:19 14° 284° (WNW) 05:27:26
ITAMSAT 1 31 Jul 05:26:45 05:31:03 27° 293° (WNW) 05:35:19 435.822/435.867
KKS-1 31 Jul 05:32:40 05:35:55 20° 266° (W) 05:39:13 437.445
AO-7 31 Jul 05:34:40 05:43:03 83° 290° (WNW) 05:51:22 29.400- 29.500
BRITE-PL 31 Jul 05:51:50 05:52:29 10° 90° (E) 05:53:10 437.365/2234.400
AIST 2 31 Jul 05:52:23 05:56:34 88° 249° (WSW) 06:00:45 435.215
STARS 31 Jul 05:59:09 06:02:26 21° 265° (W) 06:05:45 437.465
RS-15 31 Jul 06:17:13 06:28:03 53° 110° (ESE) 06:39:26 29.354- 29.394
GOMX 1 31 Jul 06:30:06 06:32:20 13° 90° (E) 06:34:34 467.674
CUBESAT XI-V 31 Jul 06:32:34 06:36:51 37° 262° (W) 06:41:08 437.345
STRAND 1 31 Jul 06:35:35 06:38:32 16° 63° (ENE) 06:41:28 437.568
HORYU 2 31 Jul 06:47:38 06:52:02 58° 286° (WNW) 06:56:23 437.375
O/OREOS (USA 219) 31 Jul 06:47:43 06:52:14 67° 252° (WSW) 06:56:45 437.305
SO-50 31 Jul 07:08:12 07:12:36 35° 114° (ESE) 07:16:59 436.795
NOAA 18 31 Jul 07:10:57 07:15:58 34° 98° (E) 07:20:56 137.9125
Cubesat XI-IV 31 Jul 07:14:48 07:19:47 38° 98° (E) 07:24:43 437.490
BRITE-PL 31 Jul 07:26:19 07:31:22 85° 283° (WNW) 07:36:47 437.365/2234.400
AO-7 31 Jul 07:29:23 07:34:35 18° 308° (NW) 07:39:47 29.400- 29.500
DOVE 4 31 Jul 07:36:31 07:40:58 27° 95° (E) 07:45:27 437.250
CUTE-I 31 Jul 07:36:47 07:42:05 63° 101° (ESE) 07:47:20 437.470
LilacSat-2 31 Jul 07:41:03 07:44:55 82° 103° (ESE) 07:48:44 437.200
NOAA 15 31 Jul 07:42:07 07:47:25 87° 285° (WNW) 07:52:42 137.62
GOMX 1 31 Jul 08:05:34 08:10:47 76° 283° (WNW) 08:16:13 467.674
HO-68 31 Jul 08:09:59 08:14:48 19° 92° (E) 08:19:35 435.675
STRAND 1 31 Jul 08:12:03 08:17:09 63° 259° (WSW) 08:22:16 437.568
YUBILEINY 31 Jul 08:21:25 08:25:52 15° 77° (ENE) 08:30:19 435.215
RS-15 31 Jul 08:29:36 08:40:38 48° 313° (NW) 08:52:18 29.354- 29.394
Cosmos 2491 31 Jul 08:48:25 08:57:03 58° 79° (ENE) 09:05:39 435.465 / 435.565
SO-50 31 Jul 08:48:52 08:53:06 29° 310° (NW) 08:57:19 436.795
NOAA 18 31 Jul 08:51:45 08:56:30 30° 294° (WNW) 09:01:12 137.9125
CINEMA 3 31 Jul 08:52:10 08:56:59 45° 98° (E) 09:01:40 145.822/145.860
CANX-2 31 Jul 08:52:51 08:56:46 37° 98° (E) 09:00:39 2200.000
Cubesat XI-IV 31 Jul 08:55:18 08:59:37 26° 294° (WNW) 09:03:56 437.490
PRISM 31 Jul 09:01:48 09:05:47 54° 73° (ENE) 09:09:45 437.425
CUTE 1.7 + AOD 2 31 Jul 09:05:16 09:09:19 44° 99° (E) 09:13:19 437.475
DOVE 4 31 Jul 09:13:54 09:18:38 35° 289° (WNW) 09:23:24 437.250
CUTE-I 31 Jul 09:18:22 09:21:34 16° 298° (WNW) 09:24:45 437.470
NOAA 15 31 Jul 09:25:10 09:26:22 11° 301° (WNW) 09:27:33 137.62
CUBEBUG 2 31 Jul 09:28:56 09:33:03 30° 95° (E) 09:37:02 437.445
SEEDS 31 Jul 09:35:52 09:40:02 74° 102° (ESE) 09:44:11 437.485
COMPASS 1 31 Jul 09:39:02 09:43:06 53° 100° (E) 09:47:08 437.405
TIGRISAT 31 Jul 09:40:13 09:42:12 13° 63° (ENE) 09:44:10 435.000
HO-68 31 Jul 09:55:56 10:03:07 74° 289° (WNW) 10:10:15 435.675
UNISAT 6 31 Jul 09:56:34 09:59:56 20° 66° (ENE) 10:03:20 437.425
AAUSAT CUBESAT 2 31 Jul 10:02:40 10:06:48 82° 103° (ESE) 10:10:54 437.432
YUBILEINY 31 Jul 10:12:26 10:21:14 85° 96° (E) 10:30:07 435.215
FUNcube-1 31 Jul 10:19:38 10:23:52 43° 98° (E) 10:27:57 145.935
ZACube-1 31 Jul 10:23:08 10:27:28 51° 99° (E) 10:31:40 437.345
CANX-2 31 Jul 10:29:35 10:32:19 17° 293° (WNW) 10:35:03 2200.000
CINEMA 3 31 Jul 10:30:07 10:33:44 20° 294° (WNW) 10:37:17 145.822/145.860
UWE-3 31 Jul 10:33:02 10:37:37 78° 284° (WNW) 10:42:02 435.000/436.395/437.385
ANTELSAT 31 Jul 10:33:32 10:38:00 47° 73° (ENE) 10:42:32 437.575/2403.000
PRISM 31 Jul 10:40:50 10:41:23 10° 269° (W) 10:41:56 437.425
CUTE 1.7 + AOD 2 31 Jul 10:42:28 10:44:45 14° 294° (WNW) 10:47:01 437.475
Cosmos 2491 31 Jul 10:46:12 10:53:17 29° 277° (W) 11:00:23 435.465 / 435.565
RS-15 31 Jul 10:49:05 10:57:20 20° 345° (NNW) 11:05:48 29.354- 29.394
Cosmos 2504 31 Jul 10:55:05 11:03:43 58° 91° (E) 11:12:16 435.465 / 435.565
Oscar 11 31 Jul 10:55:34 10:59:50 65° 285° (WNW) 11:04:05 145.826/435.025
HUMSAT D 31 Jul 10:57:28 11:00:51 24° 95° (E) 11:04:11 437.325/437.525
M-CUBED/EXP-1 PRIME 31 Jul 10:59:40 11:03:46 29° 100° (E) 11:07:46 437.505
QB50P2 31 Jul 11:02:20 11:04:46 15° 65° (ENE) 11:07:13 145.880/145.840
POLYITAN 1 31 Jul 11:04:53 11:07:23 15° 66° (ENE) 11:09:55 437.675
CUBEBUG 2 31 Jul 11:05:44 11:09:30 25° 292° (WNW) 11:13:10 437.445
TIGRISAT 31 Jul 11:13:38 11:18:15 67° 259° (W) 11:22:58 435.000
COMPASS 1 31 Jul 11:16:37 11:18:10 12° 295° (WNW) 11:19:43 437.405
DELFI C3 31 Jul 11:21:21 11:25:17 74° 284° (WNW) 11:29:13 145.870
AUBIESAT-1 31 Jul 11:21:28 11:25:51 40° 103° (ESE) 11:30:05 437.475
UNISAT 6 31 Jul 11:31:58 11:36:20 40° 262° (W) 11:40:46 437.425
JAS-2 31 Jul 11:38:27 11:41:37 15° 64° (ENE) 11:44:40 435.910
BUGSAT 1 31 Jul 11:40:44 11:42:54 14° 65° (ENE) 11:45:05 437.445
NANOSAT C BR1 31 Jul 11:41:56 11:45:49 36° 72° (ENE) 11:49:44 145.865
DUCHIFAT 1 31 Jul 11:43:53 11:47:45 35° 71° (ENE) 11:51:38 145.980
HO-68 31 Jul 11:46:24 11:49:36 14° 307° (NW) 11:52:47 435.675
FUNcube-1 31 Jul 11:56:58 11:59:42 16° 294° (WNW) 12:02:24 145.935
AISAT 31 Jul 11:57:36 11:58:28 10° 91° (E) 11:59:20 437.250
ZACube-1 31 Jul 12:00:56 12:03:16 14° 296° (WNW) 12:05:34 437.345
QB50P1 31 Jul 12:06:46 12:11:00 77° 76° (ENE) 12:15:17 145.935-145.965
ANTELSAT 31 Jul 12:12:05 12:14:56 16° 268° (W) 12:17:49 437.575/2403.000
YUBILEINY 31 Jul 12:13:18 12:19:09 19° 295° (WNW) 12:25:04 435.215
POPSAT HIP 1 31 Jul 12:13:40 12:17:55 90° 195° (SSW) 12:22:14 437.405
AIST 1 31 Jul 12:31:06 12:33:08 13° 85° (E) 12:35:09
HUMSAT D 31 Jul 12:33:00 12:36:23 24° 291° (WNW) 12:39:44 437.325/437.525
M-CUBED/EXP-1 PRIME 31 Jul 12:34:05 12:38:09 29° 296° (WNW) 12:42:10 437.505
CUBEBUG 1 31 Jul 12:34:26 12:38:25 32° 97° (E) 12:42:22 437.445
QB50P2 31 Jul 12:36:06 12:40:10 44° 261° (W) 12:44:17 145.880/145.840
POLYITAN 1 31 Jul 12:38:44 12:42:48 44° 261° (W) 12:46:55 437.675
AO-85 31 Jul 12:42:59 12:47:50 34° 113° (ESE) 12:52:32 145.980
VELOX 1 31 Jul 12:45:42 12:49:49 36° 98° (E) 12:53:56 145.980
ESTCUBE 1 31 Jul 12:49:03 12:53:34 74° 103° (ESE) 12:58:02 437.505/2401.250
Cosmos 2504 31 Jul 12:49:55 12:57:29 31° 289° (WNW) 13:05:00 435.465 / 435.565
AUBIESAT-1 31 Jul 12:56:28 12:59:58 21° 298° (WNW) 13:03:25 437.475
50 SAT 31 Jul 13:00:43 13:04:16 59° 101° (E) 13:07:48 437.505
RS-15 31 Jul 13:07:14 13:16:20 23° 22° (NNE) 13:25:27 29.354- 29.394
DX 1 31 Jul 13:13:43 13:18:01 53° 101° (E) 13:22:17 434.975-435.025
BUGSAT 1 31 Jul 13:13:56 13:17:51 45° 261° (W) 13:21:52 437.445
UKube-1 31 Jul 13:18:19 13:22:31 46° 100° (E) 13:26:40 .
NANOSAT C BR1 31 Jul 13:18:52 13:21:39 17° 267° (W) 13:24:28 145.865
Oscar 19 31 Jul 13:18:59 13:23:28 32° 68° (ENE) 13:27:58 437.125/150
JAS-2 31 Jul 13:20:23 13:26:17 67° 258° (WSW) 13:31:39 435.910
DUCHIFAT 1 31 Jul 13:20:42 13:23:32 17° 267° (W) 13:26:23 145.980
AISAT 31 Jul 13:30:54 13:35:19 65° 286° (WNW) 13:39:45 437.250
Gurwin Techsat 1B 31 Jul 13:38:42 13:42:47 23° 65° (ENE) 13:46:52 435.225
SPROUT 31 Jul 13:42:09 13:46:30 77° 103° (ESE) 13:50:47 437.525
AIST 1 31 Jul 14:06:14 14:10:16 42° 281° (W) 14:14:21
CUSAT 1 31 Jul 14:10:56 14:13:35 20° 79° (E) 14:16:44 437.405
CUBEBUG 1 31 Jul 14:11:08 14:14:29 21° 292° (WNW) 14:17:50 437.445
TISAT 1 31 Jul 14:20:03 14:24:09 44° 99° (E) 14:28:11 437.305
VELOX 1 31 Jul 14:22:49 14:26:00 20° 293° (WNW) 14:29:12 145.980
AO-85 31 Jul 14:23:30 14:28:19 33° 308° (NW) 14:32:57 145.980
GONETS M04 31 Jul 14:24:14 14:30:36 23° 81° (E) 14:37:00
ESTCUBE 1 31 Jul 14:28:52 14:29:43 10° 298° (WNW) 14:30:36 437.505/2401.250
AO-7 31 Jul 14:41:26 14:47:56 26° 56° (NE) 14:54:25 29.400- 29.500
PHONESAT 2.4 31 Jul 14:45:47 14:47:55 17° 148° (SSE) 14:50:04 2401.200-2431.200
DX 1 31 Jul 14:51:33 14:53:43 14° 296° (WNW) 14:55:54 434.975-435.025
UKube-1 31 Jul 14:55:40 14:58:09 15° 295° (WNW) 15:00:37 .
Oscar 19 31 Jul 14:58:23 15:02:44 28° 264° (W) 15:07:07 437.125/150
SWISSCUBE 31 Jul 15:02:28 15:06:25 26° 96° (E) 15:10:22 437.505
ITAMSAT 1 31 Jul 15:03:21 15:08:20 46° 71° (ENE) 15:13:18 435.822/435.867
Gurwin Techsat 1B 31 Jul 15:17:24 15:22:26 43° 261° (W) 15:27:29 435.225
DANDE 31 Jul 15:19:21 15:21:55 32° 80° (E) 15:24:55 436.750
RS-15 31 Jul 15:20:10 15:32:21 58° 51° (NE) 15:44:20 29.354- 29.394
BEESAT 31 Jul 15:22:54 15:27:20 38° 98° (E) 15:31:45 436.000
Cosmos 2499 31 Jul 15:33:03 15:41:30 51° 90° (E) 15:49:42 435.465 / 435.565
SO-50 31 Jul 15:41:20 15:44:58 22° 47° (NE) 15:48:30 436.795
ITUPSAT 1 31 Jul 15:49:05 15:53:52 72° 102° (ESE) 15:58:35 437.325
CUSAT 1 31 Jul 15:52:50 15:55:27 20° 264° (W) 15:58:34 437.405
TISAT 1 31 Jul 15:56:56 15:59:24 15° 295° (WNW) 16:01:52 437.305
HORYU 2 31 Jul 16:11:48 16:12:15 10° 62° (ENE) 16:12:43 437.375
GONETS M04 31 Jul 16:17:55 16:26:32 68° 279° (W) 16:35:16
PHONESAT 2.4 31 Jul 16:21:03 16:24:06 80° 161° (SSE) 16:27:11 2401.200-2431.200
AO-7 31 Jul 16:31:35 16:39:56 72° 255° (WSW) 16:48:20 29.400- 29.500
SWISSCUBE 31 Jul 16:40:02 16:44:10 30° 291° (WNW) 16:48:17 437.505
ITAMSAT 1 31 Jul 16:44:13 16:47:59 20° 266° (W) 16:51:46 435.822/435.867
BEESAT 3 31 Jul 16:51:30 16:53:13 13° 109° (ESE) 16:54:57 437.485
MOZHAYETS 4 31 Jul 16:57:18 17:01:44 49° 100° (E) 17:06:07
BEESAT 31 Jul 17:01:18 17:04:51 21° 294° (WNW) 17:08:23 436.000
SO-50 31 Jul 17:21:17 17:25:37 42° 245° (WSW) 17:29:49 436.795
CUTE-I 31 Jul 17:21:34 17:23:09 11° 59° (ENE) 17:24:45 437.470
KKS-1 31 Jul 17:23:31 17:28:02 86° 101° (ESE) 17:32:31 437.445
NOAA 15 31 Jul 17:23:42 17:26:46 16° 62° (ENE) 17:29:50 137.62
Cosmos 2499 31 Jul 17:26:57 17:34:48 35° 287° (WNW) 17:42:27 435.465 / 435.565
ITUPSAT 1 31 Jul 17:29:16 17:31:04 12° 298° (WNW) 17:32:51 437.325
RS-15 31 Jul 17:33:16 17:44:29 43° 253° (WSW) 17:55:31 29.354- 29.394
HORYU 2 31 Jul 17:43:39 17:48:09 77° 258° (WSW) 17:52:40 437.375
STARS 31 Jul 17:48:33 17:53:01 79° 102° (ESE) 17:57:27 437.465
PCSat 31 Jul 17:50:28 17:54:06 19° 105° (ESE) 17:57:44 145.827
PHONESAT 2.4 31 Jul 17:57:40 18:00:42 54° 359° (N) 18:03:43 2401.200-2431.200
LilacSat-2 31 Jul 18:21:33 18:25:00 31° 72° (ENE) 18:28:27 437.200
GONETS M04 31 Jul 18:22:15 18:25:11 12° 301° (WNW) 18:28:08
BEESAT 3 31 Jul 18:26:40 18:30:26 48° 304° (NW) 18:34:17 437.485
CUBESAT XI-V 31 Jul 18:30:03 18:34:37 58° 100° (E) 18:39:11 437.345
AO-7 31 Jul 18:31:28 18:33:58 11° 272° (W) 18:36:28 29.400- 29.500
Cubesat XI-IV 31 Jul 18:35:08 18:40:22 55° 72° (ENE) 18:45:38 437.490
NOAA 18 31 Jul 18:35:32 18:40:57 57° 72° (ENE) 18:46:24 137.9125
MOZHAYETS 4 31 Jul 18:35:47 18:38:28 16° 295° (WNW) 18:41:09
BRITE-PL 31 Jul 18:36:31 18:40:39 87° 257° (WSW) 18:44:53 437.365/2234.400
HO-68 31 Jul 18:39:44 18:42:51 13° 53° (NE) 18:45:56 435.675
DOVE 4 31 Jul 18:41:26 18:44:37 20° 66° (ENE) 18:47:56 437.250
BEESAT 2 31 Jul 18:42:47 18:46:42 62° 303° (WNW) 18:50:39 435.950
CUTE-I 31 Jul 18:57:00 19:02:23 88° 76° (ENE) 19:07:47 437.470
NOAA 15 31 Jul 19:00:48 19:05:59 63° 258° (WSW) 19:11:12 137.62
GOMX 1 31 Jul 19:12:42 19:16:54 82° 257° (WSW) 19:21:21 467.674
ISS 31 Jul 19:15:18 19:17:48 21° 131° (SE) 19:20:20 145.825
O/OREOS (USA 219) 31 Jul 19:21:06 19:23:50 16° 100° (E) 19:26:36 437.305
PCSat 31 Jul 19:31:42 19:37:00 56° 301° (WNW) 19:42:21 145.827
PHONESAT 2.4 31 Jul 19:34:13 19:37:18 85° 202° (SSW) 19:40:23 2401.200-2431.200
CANX-2 31 Jul 19:44:30 19:47:51 23° 69° (ENE) 19:51:11 2200.000
AIST 2 31 Jul 19:48:53 19:52:20 27° 113° (ESE) 19:55:49 435.215
CINEMA 3 31 Jul 19:52:13 19:56:18 33° 70° (ENE) 20:00:36 145.822/145.860
CUTE 1.7 + AOD 2 31 Jul 19:56:37 20:00:12 27° 70° (ENE) 20:03:47 437.475
LilacSat-2 31 Jul 19:56:50 19:59:20 16° 267° (W) 20:01:52 437.200
Cosmos 2491 31 Jul 19:59:06 20:00:48 11° 74° (ENE) 20:02:30 435.465 / 435.565
CUBESAT XI-V 31 Jul 20:09:11 20:11:30 14° 296° (WNW) 20:13:48 437.345
Cubesat XI-IV 31 Jul 20:17:16 20:20:45 17° 268° (W) 20:24:15 437.490
DOVE 4 31 Jul 20:18:02 20:22:02 35° 264° (W) 20:26:15 437.250
NOAA 18 31 Jul 20:18:18 20:21:56 18° 267° (W) 20:25:35 137.9125
HO-68 31 Jul 20:22:10 20:29:18 73° 71° (ENE) 20:36:29 435.675
STRAND 1 31 Jul 20:24:06 20:29:04 49° 100° (E) 20:33:58 437.568
YUBILEINY 31 Jul 20:24:56 20:33:06 40° 74° (ENE) 20:41:10 435.215
CUBEBUG 2 31 Jul 20:25:34 20:29:11 23° 67° (ENE) 20:32:51 437.445
SEEDS 31 Jul 20:25:54 20:29:51 40° 73° (ENE) 20:33:48 437.485
COMPASS 1 31 Jul 20:28:24 20:32:02 29° 71° (ENE) 20:35:39 437.405
ISS 31 Jul 20:51:01 20:54:04 37° 327° (NNW) 20:57:08 145.825
AAUSAT CUBESAT 2 31 Jul 20:51:13 20:55:08 42° 73° (ENE) 20:59:03 437.432
Cosmos 2504 31 Jul 20:52:10 20:57:03 17° 64° (ENE) 21:01:42 435.465 / 435.565
O/OREOS (USA 219) 31 Jul 20:58:37 21:02:51 41° 295° (WNW) 21:07:07 437.305
PHONESAT 2.4 31 Jul 21:11:14 21:13:32 19° 211° (SSW) 21:15:48 2401.200-2431.200
FUNcube-1 31 Jul 21:13:25 21:17:21 29° 70° (ENE) 21:21:18 145.935
ZACube-1 31 Jul 21:17:04 21:21:10 34° 71° (ENE) 21:25:20 437.345
AO-85 31 Jul 21:17:10 21:20:13 18° 45° (NE) 21:23:05 145.980
CANX-2 31 Jul 21:19:52 21:23:33 28° 264° (W) 21:27:14 2200.000
AIST 2 31 Jul 21:27:15 21:30:44 26° 309° (NW) 21:34:16 435.215
UWE-3 31 Jul 21:27:43 21:32:18 70° 75° (ENE) 21:36:58 435.000/436.395/437.385
CINEMA 3 31 Jul 21:29:49 21:33:28 23° 267° (W) 21:37:16 145.822/145.860
CUTE 1.7 + AOD 2 31 Jul 21:32:33 21:35:59 23° 265° (W) 21:39:25 437.475
M-CUBED/EXP-1 PRIME 31 Jul 21:44:56 21:48:10 25° 63° (ENE) 21:51:37 437.505
Cosmos 2491 31 Jul 21:47:16 21:55:53 70° 93° (E) 22:04:32 435.465 / 435.565
HUMSAT D 31 Jul 21:48:01 21:50:34 16° 66° (ENE) 21:53:07 437.325/437.525
Oscar 11 31 Jul 21:48:18 21:52:38 78° 77° (ENE) 21:56:59 145.826/435.025
CUBEBUG 2 31 Jul 22:01:20 22:05:33 35° 263° (W) 22:09:53 437.445
SEEDS 31 Jul 22:03:14 22:05:42 15° 267° (W) 22:08:10 437.485
STRAND 1 31 Jul 22:04:19 22:07:50 19° 296° (WNW) 22:11:19 437.568
COMPASS 1 31 Jul 22:04:28 22:07:35 20° 266° (W) 22:10:42 437.405
DELFI C3 31 Jul 22:05:28 22:09:17 48° 74° (ENE) 22:13:07 145.870
AUBIESAT-1 31 Jul 22:06:02 22:09:38 35° 66° (ENE) 22:13:30 437.475
HO-68 31 Jul 22:12:43 22:17:35 19° 268° (W) 22:22:30 435.675
PRISM 31 Jul 22:19:42 22:23:48 72° 286° (WNW) 22:27:54 437.425
YUBILEINY 31 Jul 22:21:45 22:29:52 43° 273° (W) 22:37:56 435.215
AAUSAT CUBESAT 2 31 Jul 22:28:37 22:30:48 14° 268° (W) 22:32:58 437.432
ANTELSAT 31 Jul 22:29:34 22:30:42 11° 89° (E) 22:31:51 437.575/2403.000
ISS 31 Jul 22:30:24 22:31:15 11° 346° (NNW) 22:32:05 145.825
Cosmos 2504 31 Jul 22:43:34 22:51:34 84° 265° (W) 22:58:58 435.465 / 435.565
FUNcube-1 31 Jul 22:49:47 22:53:32 25° 265° (W) 22:57:19 145.935
ZACube-1 31 Jul 22:54:01 22:57:30 21° 266° (W) 23:01:01 437.345
AO-85 31 Jul 22:56:51 23:00:57 45° 245° (WSW) 23:04:45 145.980
TIGRISAT 31 Jul 23:07:17 23:11:14 28° 96° (E) 23:15:05 435.000
UWE-3 31 Jul 23:08:18 23:09:12 10° 271° (W) 23:10:06 435.000/436.395/437.385
M-CUBED/EXP-1 PRIME 31 Jul 23:19:26 23:22:37 24° 261° (W) 23:26:01 437.505
HUMSAT D 31 Jul 23:21:42 23:25:48 44° 261° (W) 23:29:56 437.325/437.525
UNISAT 6 31 Jul 23:25:05 23:29:32 48° 99° (E) 23:33:50 437.425
CUBEBUG 1 31 Jul 23:29:23 23:32:44 22° 68° (ENE) 23:36:07 437.445
50 SAT 31 Jul 23:37:19 23:40:06 21° 70° (ENE) 23:42:52 437.505
AUBIESAT-1 31 Jul 23:41:35 23:44:14 17° 263° (W) 23:47:01 437.475
VELOX 1 31 Jul 23:41:47 23:45:27 27° 69° (ENE) 23:49:10 145.980
DELFI C3 31 Jul 23:43:16 23:44:23 11° 269° (W) 23:45:30 145.870
Cosmos 2491 31 Jul 23:46:49 23:53:27 24° 292° (WNW) 00:00:10 435.465 / 435.565
ESTCUBE 1 31 Jul 23:46:53 23:51:15 55° 74° (ENE) 23:55:39 437.505/2401.250
QB50P1 31 Jul 23:54:36 23:56:50 14° 92° (E) 23:59:03 145.935-145.965
POPSAT HIP 1 01 Aug 00:01:09 00:03:53 16° 93° (E) 00:06:35 437.405
ANTELSAT 01 Aug 00:03:19 00:07:51 64° 286° (WNW) 00:12:16 437.575/2403.000
DX 1 01 Aug 00:07:44 00:11:43 37° 71° (ENE) 00:15:44 434.975-435.025
UKube-1 01 Aug 00:11:27 00:15:16 32° 70° (ENE) 00:19:07 .
AIST 1 01 Aug 00:14:30 00:18:33 36° 78° (ENE) 00:22:36
QB50P2 01 Aug 00:22:35 00:26:24 31° 97° (E) 00:30:12 145.880/145.840
POLYITAN 1 01 Aug 00:25:12 00:29:03 32° 97° (E) 00:32:52 437.675
AISAT 01 Aug 00:26:24 00:30:46 89° 241° (WSW) 00:35:13 437.250
JAS-2 01 Aug 00:31:40 00:34:40 14° 93° (E) 00:37:48 435.910
SPROUT 01 Aug 00:34:00 00:38:06 46° 73° (ENE) 00:42:13 437.525
Cosmos 2504 01 Aug 00:40:30 00:43:25 12° 284° (WNW) 00:46:17 435.465 / 435.565
TIGRISAT 01 Aug 00:44:03 00:47:47 25° 292° (WNW) 00:51:26 435.000
BUGSAT 1 01 Aug 00:57:19 01:00:59 28° 96° (E) 01:04:37 437.445
NANOSAT C BR1 01 Aug 01:02:56 01:07:14 85° 104° (ESE) 01:11:28 145.865
UNISAT 6 01 Aug 01:03:03 01:05:48 16° 295° (WNW) 01:08:30 437.425
DUCHIFAT 1 01 Aug 01:04:33 01:08:50 82° 103° (ESE) 01:13:04 145.980
CUBEBUG 1 01 Aug 01:05:07 01:08:52 29° 263° (W) 01:12:38 437.445
TISAT 1 01 Aug 01:10:26 01:13:58 27° 70° (ENE) 01:17:32 437.305
50 SAT 01 Aug 01:10:44 01:13:37 21° 264° (W) 01:16:28 437.505
VELOX 1 01 Aug 01:18:15 01:21:51 25° 264° (W) 01:25:28 145.980
ESTCUBE 1 01 Aug 01:26:28 01:28:22 12° 269° (W) 01:30:17 437.505/2401.250
QB50P1 01 Aug 01:28:44 01:32:49 45° 287° (WNW) 01:36:53 145.935-145.965
Cosmos 2499 01 Aug 01:29:24 01:32:49 13° 61° (ENE) 01:36:07 435.465 / 435.565
Oscar 19 01 Aug 01:33:45 01:35:46 12° 90° (E) 01:37:46 437.125/150
POPSAT HIP 1 01 Aug 01:35:48 01:39:48 38° 288° (WNW) 01:43:45 437.405
ISS 01 Aug 01:43:49 01:46:23 21° 27° (NNE) 01:48:56 145.825
DX 1 01 Aug 01:45:10 01:48:02 17° 266° (W) 01:50:54 434.975-435.025
UKube-1 01 Aug 01:48:12 01:51:21 20° 265° (W) 01:54:31 .
